[[{"header":{"parameterUnit":"m.s-1","parameterCategory":2,"la1":30.2991,"la2":30.254,"lo1":-89.0895,"lo2":-89.0444,"dy":0.0017,"dx":0.0017,"nx":28,"ny":28,"refTime":"2024-05-18T21:00:00:Z","depth":"0","parameterNumber":2,"parameterNumberName":"U-component_of_CURRENTS"},"data":[0,0,0,0,0,0,0,0,0,0,0,0,0,0,0,0,0,0,0,0,0,0,0,0,0,0,0,0,0,0,0,0,0,0,0,0,0,0,0,0,0,0,0,0,0,0,0,0,0,0,0,0,0,0,0,0,0,0,0.1681,0.168,0,0.1618,0.1617,0.1616,0.1553,0.1552,0.1551,0.155,0.1539,0.154,0.154,0,0,0,0,0,0,0,0,0,0,0,0,0,0.1767,0.1766,0.1681,0.168,0.168,0.1618,0.1617,0.1616,0.1553,0.1552,0.1551,0.155,0.1539,0.154,0.154,0,0,0,0,0,0,0,0,0,0,0,0,0,0.1719,0.1765,0.1681,0.1641,0.1637,0.1618,0.1617,0.1616,0.1553,0.1552,0.1551,0.155,0.1539,0.154,0.154,0.1569,0,0,0.1543,0.1543,0,0,0,0,0,0,0,0,0.1722,0.1716,0.1648,0.1644,0.1639,0.1592,0.1643,0.1603,0.1554,0.1585,0.155,0.1549,0.1563,0.1562,0.1551,0.1569,0.1568,0.1543,0.1543,0.1543,0.1544,0,0,0,0,0,0,0,0.1725,0.1718,0.1656,0.1647,0.1642,0.1633,0.1624,0.1635,0.1582,0.1582,0.1577,0.1571,0.1561,0.1551,0.1551,0.1568,0.1543,0.1543,0.1544,0.1544,0.1687,0.169,0,0,0,0,0,0,0.1734,0.1721,0.1658,0.1654,0.1679,0.1632,0.1623,0.1608,0.1581,0.1575,0.1572,0.1568,0.155,0.155,0.155,0.1648,0.1543,0.1544,0.1544,0.1683,0.1688,0.1691,0,0,0,0,0,0,0.1736,0.1728,0.166,0.1687,0.1678,0.1632,0.1616,0.1608,0.1596,0.1573,0.1568,0.1569,0.1549,0.1549,0.1576,0.1645,0.1544,0.1545,0.1679,0.1685,0.1689,0.1802,0,0,0,0,0,0,0.1738,0.1729,0.1735,0.1687,0.1676,0.168,0.1617,0.1607,0.1594,0.1589,0.1569,0.1566,0.1548,0.1575,0.1576,0.1644,0.1546,0.1675,0.1682,0.1688,0.1794,0.1811,0.1825,0,0,0,0,0,0.1741,0.1789,0.1736,0.1729,0.1681,0.1682,0.1678,0.164,0.1596,0.1619,0.1594,0.1567,0.1617,0.1578,0.1579,0.1648,0.1672,0.168,0.1687,0.1788,0.1808,0.1824,0,0,0,0,0,0,0.1873,0.1784,0.1726,0.1752,0.1719,0.1673,0.1701,0.1648,0.1642,0.1642,0.1594,0.1593,0.1657,0.1634,0.1591,0.1712,0.1648,0.1656,0.1724,0.1742,0.1757,0.1836,0.1546,0,0,0,0,0,0.1888,0.1877,0.1801,0.1827,0.181,0.1743,0.1739,0.1708,0.1688,0.1682,0.1653,0.1653,0.1691,0.1697,0.1724,0.1769,0.1795,0.1822,0.1837,0.185,0.1918,0.2032,0.2065,0.1716,0.1716,0.1716,0,0,0.1951,0.1901,0.1898,0.185,0.1818,0.1836,0.174,0.1755,0.1784,0.1688,0.1726,0.171,0.172,0.1787,0.1813,0.1769,0.1948,0.1859,0.187,0.1933,0.2044,0.2078,0.2109,0.1721,0.172,0.172,0,0,0.2082,0.2018,0.2043,0.2017,0.1971,0.1933,0.1935,0.1878,0.1868,0.189,0.185,0.1883,0.1887,0.1927,0.1946,0.2067,0.2036,0.2051,0.2177,0.2286,0.2316,0.2344,0.2354,0.2381,0.2044,0.2044,0.2044,0,0.2168,0.2159,0.2067,0.2089,0.2083,0.1979,0.2023,0.2017,0.1978,0.1987,0.1932,0.1987,0.1985,0.2097,0.2142,0.211,0.2121,0.2096,0.2308,0.2336,0.2362,0.2366,0.2395,0.2051,0.205,0.2049,0.2049,0,0.2288,0.2289,0.232,0.2284,0.228,0.2309,0.2259,0.2262,0.2212,0.2188,0.2258,0.2245,0.2275,0.228,0.2252,0.2425,0.2352,0.2322,0.2261,0.2405,0.2398,0.2426,0.206,0.2057,0.2056,0.2054,0,0,0.2459,0.2408,0.2416,0.24,0.2373,0.2372,0.2442,0.2451,0.2468,0.2466,0.251,0.2597,0.2545,0.2571,0.2525,0.262,0.2783,0.2553,0.2555,0.2562,0.2957,0.2721,0.2727,0.2776,0.2784,0.2789,0.2852,0,0.2576,0.2623,0.258,0.2641,0.2648,0.2588,0.2639,0.2644,0.2621,0.2637,0.2667,0.2693,0.2666,0.2649,0.2765,0.2763,0.2875,0.2766,0.2822,0.2823,0.2598,0.276,0.2588,0.2617,0.2879,0.2884,0.2887,0,0.2689,0.2691,0.2754,0.2736,0.2737,0.2769,0.2775,0.2808,0.2836,0.2819,0.2874,0.2842,0.2964,0.291,0.3082,0.2998,0.3037,0.3047,0.3048,0.2831,0.2644,0.2532,0.2657,0.2523,0.293,0.2927,0.2924,0,0.277,0.2808,0.2841,0.284,0.2826,0.2853,0.2853,0.2866,0.2869,0.2923,0.291,0.3032,0.3033,0.3173,0.3154,0.3144,0.3299,0.3273,0.3117,0.3094,0.2969,0.2923,0.2986,0.3496,0.3496,0.3495,0.3495,0,0.2868,0.2897,0.2869,0.2876,0.2914,0.2896,0.2928,0.2941,0.2952,0.2954,0.2995,0.3003,0.3111,0.3151,0.3213,0.3201,0.3352,0.3201,0.3139,0.2987,0.2945,0.2833,0.2803,0.3498,0.3497,0.3497,0.3496,0,0.2932,0.292,0.2945,0.294,0.2938,0.2956,0.2936,0.2944,0.2958,0.2963,0.2978,0.3005,0.3033,0.3076,0.3214,0.32,0.313,0.3225,0.2968,0.2877,0.2587,0.2569,0.2539,0.2485,0.3107,0.3102,0.3098,0,0.2966,0.2981,0.297,0.2965,0.2958,0.2966,0.2956,0.2953,0.294,0.2943,0.2941,0.2948,0.2931,0.2964,0.2935,0.2963,0.2938,0.2814,0.2817,0.2594,0.2534,0.2456,0.2411,0.2675,0.2668,0.2662,0.2657,0,0.3019,0.3004,0.2998,0.2989,0.2976,0.2956,0.2938,0.2921,0.2901,0.2887,0.2848,0.2841,0.2785,0.2672,0.2623,0.2647,0.2611,0.2688,0.2598,0.234,0.2137,0.2039,0.2533,0.2605,0.261,0.2614,0.2617,0.2619,0.3041,0.304,0.3013,0.3,0.2978,0.2929,0.2875,0.2838,0.2789,0.2697,0.2747,0.2628,0.2485,0.237,0.2344,0.2091,0.2231,0.2045,0.2079,0.2047,0.19,0.2207,0.2105,0.2107,0.2109,0.2111,0.2112,0,0.3055,0.3037,0.3024,0.2971,0.2916,0.2916,0.2837,0.2742,0.2635,0.2546,0.2484,0.2221,0.2047,0.1902,0.1646,0.1527,0.1529,0.146,0.1397,0.1421,0.1818,0.1699,0.1333,0.1333,0.1333,0.1333,0.1333,0.1334,0.3058,0.3032,0.3008,0.2912,0.2866,0.2737,0.2668,0.2537,0.2419,0.2143,0.1913,0.1838,0.1626,0.134,0.1101,0.1079,0.1033,0.0894,0.0985,0.1301,0.1361,0.1417,0.1299,0.0856,0.0856,0.0509,0.0506,0.0504]},{"header":{"parameterUnit":"m.s-1","parameterCategory":2,"la1":30.2991,"la2":30.254,"lo1":-89.0895,"lo2":-89.0444,"dy":0.0017,"dx":0.0017,"nx":28,"ny":28,"refTime":"2024-05-18T21:00:00:Z","depth":"0","parameterNumber":3,"parameterNumberName":"V-component_of_CURRENTS"},"data":[0,0,0,0,0,0,0,0,0,0,0,0,0,0,0,0,0,0,0,0,0,0,0,0,0,0,0,0,0,0,0,0,0,0,0,0,0,0,0,0,0,0,0,0,0,0,0,0,0,0,0,0,0,0,0,0,0,0,0.044,0.044,0,0.0479,0.048,0.048,0.0512,0.0512,0.0513,0.0513,0.0536,0.0537,0.0537,0,0,0,0,0,0,0,0,0,0,0,0,0,0.0391,0.0391,0.044,0.044,0.0441,0.0479,0.048,0.048,0.0512,0.0512,0.0513,0.0513,0.0536,0.0537,0.0537,0,0,0,0,0,0,0,0,0,0,0,0,0,0.042,0.0392,0.044,0.046,0.0462,0.0479,0.048,0.0481,0.0512,0.0512,0.0513,0.0513,0.0536,0.0537,0.0537,0.0534,0,0,0.0539,0.0539,0,0,0,0,0,0,0,0,0.0418,0.0422,0.0457,0.0459,0.0461,0.049,0.0471,0.0497,0.0512,0.0494,0.0513,0.0513,0.0519,0.0521,0.0529,0.0535,0.0536,0.0539,0.054,0.054,0.054,0,0,0,0,0,0,0,0.0416,0.042,0.0456,0.0457,0.046,0.0467,0.0472,0.0476,0.0504,0.0496,0.0498,0.0501,0.052,0.0528,0.053,0.0536,0.0539,0.054,0.054,0.054,0.0557,0.0557,0,0,0,0,0,0,0.0409,0.0418,0.0455,0.0457,0.0439,0.0468,0.0473,0.0481,0.0505,0.0508,0.05,0.0502,0.0527,0.0529,0.053,0.056,0.054,0.054,0.0541,0.0556,0.0557,0.0557,0,0,0,0,0,0,0.0408,0.0412,0.0453,0.0438,0.0443,0.0468,0.0477,0.0482,0.0492,0.0508,0.0512,0.0505,0.0527,0.053,0.0537,0.056,0.0541,0.0541,0.0556,0.0557,0.0557,0.0599,0,0,0,0,0,0,0.0407,0.0412,0.0417,0.0437,0.0444,0.047,0.0477,0.0482,0.0492,0.0495,0.0513,0.0516,0.0528,0.0536,0.0538,0.0561,0.0542,0.0556,0.0556,0.0557,0.0598,0.0601,0.0603,0,0,0,0,0,0.0405,0.0419,0.0417,0.0421,0.045,0.047,0.0475,0.0493,0.0492,0.0502,0.0509,0.0516,0.0538,0.0537,0.0538,0.0562,0.0556,0.0556,0.0557,0.0596,0.06,0.0603,0,0,0,0,0,0,0.0405,0.0423,0.0422,0.0441,0.0453,0.0475,0.0487,0.049,0.0504,0.0505,0.0514,0.0518,0.0537,0.0533,0.0531,0.0564,0.0549,0.0549,0.0578,0.0582,0.0585,0.0634,0.0542,0,0,0,0,0,0.0404,0.042,0.043,0.0448,0.045,0.0463,0.0473,0.0483,0.0496,0.0503,0.0512,0.0521,0.0538,0.0546,0.0557,0.0569,0.0597,0.0584,0.0587,0.0589,0.0629,0.0706,0.0721,0.0557,0.0557,0.0557,0,0,0.0413,0.0422,0.0433,0.0448,0.0459,0.0482,0.0471,0.0488,0.0515,0.0502,0.0534,0.0531,0.0542,0.0567,0.0574,0.0567,0.0636,0.0589,0.0592,0.0631,0.0708,0.0724,0.0739,0.0557,0.0557,0.0557,0,0,0.0445,0.044,0.0466,0.0472,0.0484,0.0494,0.0495,0.051,0.0523,0.054,0.0545,0.0562,0.0568,0.06,0.0612,0.0633,0.0649,0.0617,0.0677,0.075,0.0766,0.078,0.0784,0.0799,0.0619,0.0619,0.062,0,0.0458,0.0487,0.0476,0.0498,0.0514,0.0499,0.0532,0.0542,0.0559,0.0583,0.0555,0.0605,0.0599,0.0666,0.0669,0.0647,0.0667,0.0665,0.0759,0.0774,0.0788,0.079,0.0805,0.0622,0.0621,0.0621,0.0621,0,0.0507,0.0528,0.0542,0.0568,0.0579,0.0603,0.0609,0.0623,0.0622,0.064,0.0687,0.0684,0.0726,0.071,0.0696,0.0787,0.0758,0.0756,0.076,0.0808,0.0804,0.082,0.0624,0.0624,0.0623,0.0623,0,0,0.0558,0.0577,0.0582,0.0603,0.0618,0.0635,0.0672,0.0716,0.0755,0.076,0.083,0.084,0.0842,0.0857,0.0841,0.0891,0.0968,0.0866,0.0868,0.0887,0.1091,0.0994,0.1001,0.0991,0.0995,0.0998,0.103,0,0.0609,0.0658,0.0657,0.0712,0.0741,0.0737,0.0776,0.0806,0.0824,0.088,0.0899,0.0944,0.0897,0.0913,0.0964,0.099,0.102,0.0958,0.1029,0.1031,0.0956,0.1021,0.0973,0.0994,0.1046,0.1048,0.105,0,0.0666,0.0693,0.0748,0.0789,0.0801,0.0828,0.0887,0.0918,0.0983,0.0999,0.1058,0.1068,0.1149,0.1087,0.1186,0.115,0.113,0.1128,0.1129,0.1052,0.0967,0.0964,0.102,0.0983,0.1074,0.1072,0.107,0,0.0708,0.076,0.0805,0.0817,0.0858,0.0887,0.0911,0.0962,0.0998,0.1084,0.1127,0.1215,0.1262,0.1302,0.128,0.1254,0.1366,0.1328,0.1211,0.1201,0.1184,0.1166,0.1239,0.1394,0.1394,0.1394,0.1394,0,0.0765,0.0804,0.0826,0.0849,0.0908,0.0922,0.0987,0.1019,0.1086,0.1152,0.1194,0.1274,0.1326,0.1378,0.1349,0.1335,0.1425,0.1252,0.1231,0.1185,0.1167,0.1151,0.1138,0.1395,0.1395,0.1394,0.1394,0,0.0803,0.0819,0.0869,0.0911,0.0925,0.0961,0.1007,0.1049,0.1114,0.1209,0.1244,0.1353,0.1428,0.1427,0.1482,0.1409,0.1372,0.1353,0.1253,0.1219,0.106,0.1049,0.1116,0.112,0.1258,0.1256,0.1255,0,0.0827,0.0856,0.0895,0.0909,0.0925,0.0972,0.0999,0.1055,0.1102,0.1257,0.1312,0.1416,0.1502,0.1527,0.1426,0.1359,0.1326,0.1223,0.1168,0.1075,0.105,0.1041,0.1041,0.1138,0.1136,0.1134,0.1132,0,0.0861,0.0865,0.0886,0.0916,0.0941,0.0987,0.1036,0.1083,0.117,0.1274,0.1428,0.1524,0.1532,0.1486,0.1351,0.1281,0.1196,0.1177,0.1158,0.1038,0.0967,0.095,0.1039,0.1115,0.1117,0.1118,0.1119,0.112,0.0861,0.087,0.0876,0.0907,0.094,0.0996,0.1042,0.1123,0.1231,0.1413,0.1497,0.1659,0.1543,0.1379,0.1269,0.1007,0.1066,0.0933,0.0945,0.0956,0.0927,0.0932,0.0933,0.0933,0.0934,0.0934,0.0935,0,0.0833,0.0836,0.0862,0.0894,0.0928,0.0964,0.1056,0.1127,0.1268,0.1464,0.162,0.1644,0.149,0.1307,0.095,0.0811,0.0796,0.0761,0.0777,0.0804,0.0877,0.0836,0.0725,0.0725,0.0725,0.0725,0.0725,0.0725,0.0808,0.0801,0.0815,0.0858,0.09,0.0966,0.1026,0.1168,0.1315,0.1538,0.1652,0.176,0.1583,0.1065,0.076,0.0699,0.0692,0.063,0.0677,0.0736,0.0754,0.0771,0.0731,0.06,0.06,0.06,0.06,0.06]}],[{"header":{"parameterUnit":"m.s-1","parameterCategory":2,"la1":30.2991,"la2":30.254,"lo1":-89.0895,"lo2":-89.0444,"dy":0.0017,"dx":0.0017,"nx":28,"ny":28,"refTime":"2024-05-18T21:00:00:Z","depth":"2","parameterNumber":2,"parameterNumberName":"U-component_of_CURRENTS"},"data":[0,0,0,0,0,0,0,0,0,0,0,0,0,0,0,0,0,0,0,0,0,0,0,0,0,0,0,0,0,0,0,0,0,0,0,0,0,0,0,0,0,0,0,0,0,0,0,0,0,0,0,0,0,0,0,0,0,0,0.1447,0.1447,0,0.1488,0.1489,0.1489,0.1528,0.1529,0.153,0.153,0.1597,0.1598,0.1599,0,0,0,0,0,0,0,0,0,0,0,0,0,0.1363,0.1364,0.1447,0.1447,0.1448,0.1488,0.1489,0.1489,0.1528,0.1529,0.153,0.1531,0.1596,0.1597,0.1599,0,0,0,0,0,0,0,0,0,0,0,0,0,0.1399,0.1365,0.1447,0.1474,0.1477,0.1488,0.1489,0.1489,0.1528,0.1529,0.153,0.1531,0.1596,0.1597,0.1599,0.1588,0,0,0.1604,0.1605,0,0,0,0,0,0,0,0,0.1397,0.1402,0.1469,0.1472,0.1476,0.1506,0.1483,0.1524,0.1528,0.1506,0.153,0.1532,0.1569,0.1573,0.1575,0.1591,0.1594,0.1604,0.1605,0.1606,0.1606,0,0,0,0,0,0,0,0.1395,0.14,0.1461,0.147,0.1474,0.1472,0.1478,0.1491,0.153,0.1508,0.1512,0.152,0.1571,0.1573,0.1577,0.1595,0.1604,0.1606,0.1607,0.1607,0.1645,0.1645,0,0,0,0,0,0,0.1395,0.1398,0.146,0.1462,0.1441,0.1473,0.148,0.1494,0.153,0.1537,0.1519,0.1521,0.157,0.1575,0.158,0.1651,0.1606,0.1607,0.1608,0.1645,0.1645,0.1645,0,0,0,0,0,0,0.1393,0.14,0.1458,0.1432,0.144,0.1473,0.1488,0.1494,0.15,0.1538,0.1545,0.1521,0.1571,0.1577,0.1598,0.1651,0.1608,0.161,0.1645,0.1645,0.1645,0.1741,0,0,0,0,0,0,0.1391,0.14,0.1409,0.1433,0.1442,0.1476,0.1488,0.1494,0.1505,0.1508,0.1541,0.1548,0.1572,0.1595,0.16,0.1652,0.1611,0.1645,0.1645,0.1645,0.1738,0.1744,0.175,0,0,0,0,0,0.1388,0.1404,0.141,0.1417,0.1454,0.1477,0.1481,0.1506,0.1504,0.1513,0.153,0.1548,0.1599,0.1596,0.1602,0.1656,0.1645,0.1645,0.1645,0.1735,0.1743,0.1749,0,0,0,0,0,0,0.1383,0.141,0.1417,0.1444,0.1462,0.1485,0.1499,0.15,0.1517,0.1524,0.1545,0.1553,0.1595,0.159,0.1586,0.1659,0.1625,0.1626,0.1692,0.17,0.1705,0.1747,0.1612,0,0,0,0,0,0.1382,0.1398,0.1422,0.1444,0.1454,0.1469,0.1479,0.1493,0.1512,0.152,0.154,0.1561,0.1596,0.1618,0.1637,0.167,0.1681,0.1703,0.1709,0.1715,0.1748,0.1798,0.1813,0.1645,0.1645,0.1645,0,0,0.1388,0.1404,0.1414,0.1442,0.1459,0.1482,0.1478,0.15,0.1527,0.1524,0.1563,0.158,0.1603,0.1656,0.1674,0.1664,0.1761,0.1715,0.1721,0.1751,0.18,0.1817,0.1832,0.1645,0.1645,0.1645,0,0,0.1404,0.142,0.1437,0.1451,0.1477,0.1492,0.1495,0.1517,0.1538,0.1573,0.1583,0.1628,0.1662,0.1706,0.1731,0.177,0.1785,0.1767,0.185,0.1898,0.1914,0.1928,0.1942,0.1957,0.1778,0.1778,0.1779,0,0.1413,0.1435,0.1445,0.1466,0.1483,0.1495,0.1518,0.1543,0.1569,0.159,0.16,0.1673,0.1701,0.1775,0.1818,0.1794,0.1808,0.1831,0.1912,0.1926,0.1939,0.1951,0.1966,0.1783,0.1783,0.1782,0.1782,0,0.144,0.1458,0.1472,0.1503,0.152,0.1543,0.1577,0.1599,0.1626,0.1655,0.1724,0.1768,0.1816,0.1839,0.1866,0.1965,0.1939,0.1912,0.1908,0.1963,0.1969,0.1984,0.179,0.1788,0.1787,0.1785,0,0,0.1461,0.1486,0.1494,0.1501,0.154,0.1554,0.1607,0.1654,0.1684,0.1746,0.18,0.1905,0.1926,0.1955,0.1975,0.2052,0.2169,0.2049,0.2049,0.2088,0.2264,0.2035,0.2028,0.2167,0.217,0.2173,0.2226,0,0.1482,0.1513,0.1528,0.1561,0.1573,0.1602,0.1644,0.1689,0.1737,0.179,0.1869,0.1927,0.1966,0.2003,0.2092,0.214,0.2214,0.2156,0.2184,0.2184,0.1996,0.204,0.191,0.1928,0.2239,0.2242,0.2243,0,0.1497,0.1515,0.1549,0.1569,0.1581,0.1614,0.1668,0.1708,0.179,0.183,0.1914,0.1955,0.2083,0.2098,0.225,0.2212,0.2269,0.231,0.2311,0.2082,0.1982,0.1924,0.1942,0.2267,0.2265,0.2263,0.2262,0,0.1478,0.1521,0.1545,0.1557,0.1597,0.1629,0.1662,0.1727,0.1755,0.1858,0.189,0.2015,0.2077,0.2189,0.2288,0.2285,0.2431,0.2407,0.225,0.2233,0.2119,0.2084,0.253,0.253,0.253,0.253,0.2529,0,0.1472,0.1493,0.1543,0.1552,0.1586,0.1621,0.1665,0.1711,0.1777,0.1809,0.1912,0.1955,0.2117,0.2203,0.2298,0.23,0.2429,0.2281,0.224,0.2137,0.2105,0.2395,0.2379,0.2531,0.2531,0.2531,0.253,0,0.1443,0.1474,0.1499,0.1553,0.1572,0.1599,0.165,0.1673,0.1744,0.179,0.1825,0.1936,0.2025,0.2139,0.2296,0.2261,0.2315,0.2289,0.2131,0.2067,0.2085,0.2073,0.2106,0.2099,0.2092,0.2087,0.2083,0,0.1443,0.1451,0.1494,0.1503,0.1534,0.1576,0.1595,0.1657,0.1672,0.1762,0.1773,0.1871,0.1903,0.1991,0.1995,0.2039,0.2185,0.1892,0.1844,0.2089,0.2048,0.2045,0.2042,0.1749,0.1742,0.1736,0.1732,0,0.1441,0.1453,0.1463,0.1472,0.1494,0.1503,0.1536,0.1534,0.16,0.1634,0.1668,0.1702,0.174,0.1688,0.1686,0.1705,0.186,0.1765,0.2123,0.1822,0.1741,0.1703,0.1715,0.1682,0.1687,0.1691,0.1693,0.1695,0.1448,0.1437,0.1435,0.1434,0.1445,0.142,0.1406,0.1423,0.1424,0.1442,0.1519,0.1515,0.1519,0.1409,0.138,0.1352,0.1475,0.1446,0.147,0.1499,0.1394,0.13,0.1141,0.1142,0.1144,0.1145,0.1146,0,0.1435,0.1409,0.1397,0.1363,0.1332,0.1379,0.1351,0.1317,0.1286,0.13,0.1314,0.118,0.1119,0.1161,0.1018,0.0946,0.1026,0.0927,0.1067,0.1114,0.1156,0.1042,0.0692,0.069,0.0689,0.0688,0,0,0.1424,0.1372,0.1335,0.1257,0.1257,0.1215,0.1197,0.1147,0.112,0.1036,0.1009,0.1085,0.1101,0.089,0.0839,0.0752,0.094,0.0717,0.1083,0.1297,0.1338,0.1449,0.1321,0,0,0,0,0]},{"header":{"parameterUnit":"m.s-1","parameterCategory":2,"la1":30.2991,"la2":30.254,"lo1":-89.0895,"lo2":-89.0444,"dy":0.0017,"dx":0.0017,"nx":28,"ny":28,"refTime":"2024-05-18T21:00:00:Z","depth":"2","parameterNumber":3,"parameterNumberName":"V-component_of_CURRENTS"},"data":[0,0,0,0,0,0,0,0,0,0,0,0,0,0,0,0,0,0,0,0,0,0,0,0,0,0,0,0,0,0,0,0,0,0,0,0,0,0,0,0,0,0,0,0,0,0,0,0,0,0,0,0,0,0,0,0,0,0,-0.0098,-0.0099,0,-0.0084,-0.0084,-0.0083,-0.012,-0.0121,-0.0123,-0.0124,-0.016,-0.016,-0.016,0,0,0,0,0,0,0,0,0,0,0,0,0,-0.0115,-0.0114,-0.0098,-0.0099,-0.0099,-0.0084,-0.0084,-0.0083,-0.012,-0.0121,-0.0123,-0.0124,-0.016,-0.016,-0.016,0,0,0,0,0,0,0,0,0,0,0,0,0,-0.0103,-0.0114,-0.0098,-0.0116,-0.0118,-0.0084,-0.0084,-0.0083,-0.0119,-0.0121,-0.0123,-0.0125,-0.016,-0.016,-0.0159,-0.0117,0,0,-0.0158,-0.0158,0,0,0,0,0,0,0,0,-0.0103,-0.0102,-0.0114,-0.0115,-0.0117,-0.0108,-0.0103,-0.0098,-0.0119,-0.0117,-0.0124,-0.0126,-0.0147,-0.0148,-0.0137,-0.0118,-0.012,-0.0158,-0.0158,-0.0158,-0.0158,0,0,0,0,0,0,0,-0.0104,-0.0102,-0.0091,-0.0114,-0.0116,-0.0111,-0.0111,-0.0101,-0.012,-0.0117,-0.012,-0.0121,-0.0148,-0.0137,-0.0138,-0.012,-0.0158,-0.0158,-0.0158,-0.0157,-0.0086,-0.0084,0,0,0,0,0,0,-0.011,-0.0103,-0.0091,-0.009,-0.0117,-0.0109,-0.011,-0.0107,-0.0119,-0.0123,-0.0119,-0.0123,-0.0137,-0.0139,-0.014,-0.0104,-0.0158,-0.0157,-0.0157,-0.0087,-0.0085,-0.0083,0,0,0,0,0,0,-0.011,-0.0109,-0.0092,-0.0099,-0.0096,-0.0107,-0.0103,-0.0106,-0.0104,-0.0121,-0.0126,-0.0118,-0.0139,-0.014,-0.0129,-0.0106,-0.0157,-0.0157,-0.0089,-0.0087,-0.0084,-0.0024,0,0,0,0,0,0,-0.0111,-0.0109,-0.0106,-0.0099,-0.0096,-0.0079,-0.0102,-0.0104,-0.0103,-0.0107,-0.0121,-0.0126,-0.014,-0.0129,-0.0128,-0.0106,-0.0156,-0.0091,-0.0088,-0.0085,-0.0028,-0.002,-0.0013,0,0,0,0,0,-0.0111,-0.0109,-0.0106,-0.0104,-0.0093,-0.0079,-0.0076,-0.009,-0.0101,-0.0096,-0.0099,-0.0126,-0.0109,-0.0127,-0.0127,-0.0104,-0.0093,-0.0089,-0.0085,-0.0032,-0.0022,-0.0013,0,0,0,0,0,0,-0.0126,-0.0111,-0.0109,-0.0105,-0.0093,-0.0086,-0.0083,-0.0084,-0.0079,-0.0086,-0.0102,-0.0106,-0.0089,-0.0097,-0.0117,-0.0073,-0.0106,-0.0102,-0.0065,-0.0056,-0.0048,-0.0063,-0.0156,0,0,0,0,0,-0.0122,-0.0113,-0.0098,-0.0096,-0.0087,-0.008,-0.0075,-0.0079,-0.0074,-0.0075,-0.0076,-0.0076,-0.0067,-0.0065,-0.0062,-0.0032,-0.0043,-0.0017,-0.0009,-0.0002,-0.0012,-0.0009,-0.0003,-0.0071,-0.0071,-0.0071,0,0,-0.0132,-0.0119,-0.0119,-0.0097,-0.0088,-0.0071,-0.0082,-0.0073,-0.0061,-0.0078,-0.0058,-0.0051,-0.0054,-0.0026,-0.0019,-0.0034,0.002,0.0002,0.0008,-0.0006,-0.0005,0.0002,0.0007,-0.0069,-0.0069,-0.007,0,0,-0.0143,-0.0128,-0.0122,-0.0102,-0.0082,-0.0069,-0.0065,-0.0046,-0.0041,-0.0008,-0.0021,0.0,0.0021,0.0024,0.0027,0.0082,0.0057,0.0088,0.0118,0.0123,0.0128,0.0132,0.0158,0.0163,0.0096,0.0096,0.0096,0,-0.0161,-0.0138,-0.0119,-0.01,-0.0082,-0.0067,-0.0049,-0.0034,-0.0014,0.0,0.0,0.0044,0.0044,0.007,0.0093,0.0098,0.0101,0.0082,0.0131,0.0135,0.0138,0.0163,0.0168,0.0099,0.0099,0.0099,0.0098,0,-0.0155,-0.0135,-0.0127,-0.0092,-0.0071,-0.0051,-0.0023,0.0001,0.0023,0.004,0.0077,0.0095,0.0115,0.0133,0.0132,0.0162,0.016,0.0136,0.0103,0.0148,0.0172,0.0177,0.0104,0.0103,0.0102,0.0101,0,0,-0.0194,-0.0137,-0.0134,-0.0099,-0.0058,-0.0032,-0.0006,0.0032,0.0065,0.0089,0.0135,0.0159,0.0167,0.0172,0.0179,0.0195,0.0241,0.0182,0.0181,0.02,0.0269,0.0218,0.0218,0.0224,0.0225,0.0225,0.0288,0,-0.0194,-0.0151,-0.0125,-0.0074,-0.0037,-0.0004,0.0031,0.0066,0.0104,0.0155,0.0168,0.0211,0.018,0.0214,0.0217,0.0246,0.0251,0.0227,0.0228,0.0228,0.017,0.022,0.0227,0.0278,0.0293,0.0293,0.0294,0,-0.0181,-0.0148,-0.0106,-0.0025,-0.0007,0.0018,0.0098,0.0129,0.0183,0.0216,0.0238,0.0255,0.029,0.0262,0.0286,0.0274,0.0265,0.0275,0.0277,0.0202,0.0184,0.023,0.0285,0.0301,0.0301,0.03,0.03,0,-0.0173,-0.012,-0.008,-0.0055,0.0019,0.0046,0.0083,0.0142,0.0197,0.0251,0.0314,0.0318,0.0374,0.0341,0.0359,0.0326,0.0398,0.0349,0.0285,0.0283,0.0273,0.0267,0.0337,0.0337,0.0337,0.0336,0.0336,0,-0.0149,-0.0111,-0.0073,-0.0042,0.0025,0.0063,0.0139,0.0179,0.0255,0.0346,0.0339,0.0435,0.0398,0.0439,0.0396,0.0375,0.0416,0.0295,0.0291,0.0298,0.0294,0.0287,0.0281,0.0339,0.0338,0.0338,0.0337,0,-0.0124,-0.0107,-0.0045,0.0014,0.0036,0.0085,0.0181,0.0248,0.0304,0.0429,0.0457,0.0546,0.0594,0.0552,0.0554,0.0451,0.0421,0.0393,0.0414,0.0407,0.029,0.0286,0.0309,0.0308,0.0306,0.0305,0.0305,0,-0.0104,-0.0076,-0.0009,0.0031,0.0058,0.0129,0.0193,0.0264,0.0348,0.052,0.0601,0.0683,0.0761,0.073,0.0583,0.0473,0.0463,0.0377,0.0277,0.0291,0.0285,0.0283,0.0281,0.0319,0.0318,0.0317,0.0317,0,-0.0063,-0.0048,0.0003,0.0077,0.014,0.0228,0.0321,0.0408,0.0524,0.0649,0.0845,0.0917,0.0865,0.0776,0.0583,0.0494,0.0381,0.0356,0.0402,0.0298,0.0298,0.0292,0.0291,0.0312,0.0313,0.0313,0.0313,0.0313,-0.0034,0.0006,0.0061,0.0139,0.0214,0.0333,0.0434,0.056,0.073,0.093,0.0989,0.1073,0.0919,0.0665,0.0533,0.0356,0.0336,0.0252,0.0256,0.026,0.0223,0.0217,0.0213,0.0213,0.0213,0.0213,0.0212,0,0.0004,0.0044,0.0122,0.0222,0.0323,0.034,0.0529,0.0653,0.0876,0.1003,0.1138,0.0995,0.0869,0.0704,0.0422,0.0239,0.0235,0.0201,0.0243,0.0248,0.0252,0.0217,0.0204,0.0204,0.0204,0.0204,0,0,0.0028,0.0099,0.0142,0.0299,0.0364,0.0526,0.0645,0.083,0.0959,0.1118,0.1138,0.1108,0.089,0.0681,0.0482,0.0354,0.0336,0.032,0.0339,0.0417,0.0424,0.029,0.024,0,0,0,0,0]}],[{"header":{"parameterUnit":"m.s-1","parameterCategory":2,"la1":30.2991,"la2":30.254,"lo1":-89.0895,"lo2":-89.0444,"dy":0.0017,"dx":0.0017,"nx":28,"ny":28,"refTime":"2024-05-18T21:00:00:Z","depth":"4","parameterNumber":2,"parameterNumberName":"U-component_of_CURRENTS"},"data":[0,0,0,0,0,0,0,0,0,0,0,0,0,0,0,0,0,0,0,0,0,0,0,0,0,0,0,0,0,0,0,0,0,0,0,0,0,0,0,0,0,0,0,0,0,0,0,0,0,0,0,0,0,0,0,0,0,0,0.0002,0.0002,0,0.003,0.0031,0.0031,0.0089,0.009,0.0091,0.0092,0.0141,0.0142,0.0142,0,0,0,0,0,0,0,0,0,0,0,0,0,0.0015,0.0015,0.0002,0.0002,0.0002,0.003,0.0031,0.0031,0.0089,0.009,0.0091,0.0092,0.0141,0.0142,0.0142,0,0,0,0,0,0,0,0,0,0,0,0,0,0.0026,0.0015,0.0002,0.0032,0.0035,0.003,0.0031,0.0032,0.0089,0.009,0.0091,0.0093,0.0141,0.0142,0.0142,0.0122,0,0,0.0145,0.0145,0,0,0,0,0,0,0,0,0.0025,0.0026,0.0028,0.003,0.0033,0.0054,0.0053,0.0062,0.0089,0.0072,0.0092,0.0093,0.0111,0.0114,0.0121,0.0124,0.0126,0.0145,0.0145,0.0146,0.0146,0,0,0,0,0,0,0,0.0024,0.0025,0.0017,0.0027,0.0031,0.0049,0.0052,0.0055,0.0087,0.0074,0.0077,0.0074,0.0113,0.012,0.0123,0.0127,0.0145,0.0145,0.0146,0.0146,0.0235,0.0237,0,0,0,0,0,0,0.0012,0.0024,0.0016,0.0017,0.0028,0.0047,0.0051,0.0049,0.0087,0.0092,0.0073,0.0076,0.0118,0.0122,0.0125,0.0204,0.0146,0.0146,0.0147,0.0234,0.0236,0.0238,0,0,0,0,0,0,0.0012,0.0011,0.0015,0.0019,0.002,0.0045,0.0043,0.0049,0.0087,0.0085,0.0093,0.0107,0.012,0.0124,0.0164,0.0202,0.0147,0.0147,0.0231,0.0234,0.0237,0.0297,0,0,0,0,0,0,0.0012,0.0011,0.0017,0.0018,0.0019,0.0038,0.0041,0.0048,0.0079,0.0085,0.0116,0.0121,0.0121,0.0163,0.0165,0.0202,0.0148,0.0229,0.0233,0.0236,0.0292,0.0301,0.0309,0,0,0,0,0,0.0012,0.0012,0.0017,0.0016,0.0023,0.0039,0.0043,0.0067,0.008,0.0105,0.013,0.0121,0.0187,0.0165,0.0166,0.0205,0.0227,0.0232,0.0236,0.0289,0.03,0.0309,0,0,0,0,0,0,0.0026,0.0017,0.0023,0.0022,0.0041,0.0048,0.0064,0.0081,0.0119,0.0129,0.0137,0.0144,0.0198,0.0191,0.0166,0.0244,0.0209,0.0214,0.0249,0.0259,0.0267,0.0267,0.0149,0,0,0,0,0,0.0027,0.0022,0.0029,0.0031,0.0041,0.0059,0.0071,0.0089,0.0111,0.0131,0.0157,0.0182,0.0211,0.0227,0.0249,0.0279,0.0258,0.0309,0.0317,0.0324,0.0327,0.0347,0.0357,0.0252,0.0252,0.0252,0,0,0.0032,0.0024,0.0025,0.0033,0.0047,0.0058,0.0072,0.0097,0.0126,0.0127,0.0188,0.0214,0.0227,0.0275,0.0298,0.0276,0.0337,0.033,0.0335,0.0335,0.0352,0.0362,0.0371,0.0255,0.0254,0.0254,0,0,0.0033,0.0037,0.0038,0.0052,0.007,0.0075,0.0089,0.0121,0.0165,0.0211,0.023,0.0276,0.0316,0.0338,0.035,0.0412,0.0385,0.0432,0.0468,0.0487,0.0496,0.0503,0.0458,0.0461,0.0431,0.0431,0.0431,0,0.0041,0.004,0.0046,0.0053,0.0065,0.0084,0.0103,0.0138,0.0187,0.0224,0.0242,0.0323,0.0342,0.039,0.043,0.043,0.042,0.0427,0.0497,0.0504,0.051,0.0463,0.0465,0.0435,0.0434,0.0434,0.0433,0,0.0044,0.0051,0.0055,0.0062,0.0081,0.0099,0.0137,0.0182,0.0229,0.0261,0.0348,0.0385,0.0432,0.0456,0.0467,0.0531,0.0501,0.0507,0.0467,0.0524,0.047,0.0471,0.0439,0.0438,0.0437,0.0436,0,0,0.0032,0.0053,0.0056,0.0069,0.0091,0.0106,0.0157,0.0209,0.0255,0.0322,0.0393,0.046,0.0494,0.0512,0.0539,0.0568,0.0605,0.0572,0.0571,0.0517,0.0612,0.0561,0.0556,0.0636,0.0637,0.0639,0.0544,0,0.0036,0.005,0.0063,0.0086,0.0098,0.0135,0.0185,0.0237,0.0295,0.037,0.0429,0.0504,0.0511,0.0562,0.059,0.0623,0.0617,0.0627,0.0573,0.057,0.0511,0.056,0.0643,0.0545,0.0545,0.0545,0.0546,0,0.0029,0.0042,0.0066,0.011,0.0124,0.0147,0.0221,0.0275,0.0366,0.0425,0.049,0.0539,0.061,0.0616,0.0646,0.0661,0.064,0.0639,0.0635,0.057,0.0524,0.0485,0.0547,0.0547,0.0547,0.0547,0.0547,0,0.0006,0.004,0.006,0.0072,0.0124,0.0167,0.0215,0.0296,0.0362,0.0472,0.0525,0.059,0.0655,0.0657,0.0664,0.0673,0.0673,0.067,0.0572,0.0564,0.0608,0.0601,0.066,0.066,0.066,0.066,0.0661,0,-0.001,0.0004,0.0058,0.0068,0.0125,0.0174,0.0253,0.0315,0.0416,0.0484,0.0564,0.0615,0.0684,0.0694,0.067,0.0623,0.0662,0.0579,0.0555,0.063,0.0628,0.0605,0.06,0.0657,0.0658,0.0658,0.0659,0,-0.0047,-0.0018,0.0004,0.0076,0.011,0.0157,0.0275,0.0329,0.0432,0.0525,0.0571,0.0658,0.0681,0.0682,0.0683,0.0629,0.0587,0.0542,0.0584,0.0562,0.0449,0.0449,0.0427,0.0425,0.0423,0.0421,0.042,0,-0.0066,-0.0061,0.0005,0.0032,0.007,0.0154,0.0218,0.0334,0.039,0.0526,0.0561,0.0632,0.0671,0.0615,0.0614,0.0533,0.0517,0.0462,0.0498,0.0456,0.0434,0.0436,0.0438,0.0417,0.0417,0.0416,0.0416,0,-0.0104,-0.0085,-0.0056,0.0001,0.0061,0.0128,0.0226,0.0269,0.0401,0.0488,0.0562,0.0582,0.0596,0.0586,0.0536,0.0472,0.05,0.0442,0.0446,0.048,0.0444,0.0424,0.0428,0.0409,0.041,0.0411,0.0411,0,-0.0127,-0.0117,-0.0081,-0.0025,0.0032,0.0089,0.0151,0.0238,0.0319,0.0478,0.0483,0.0546,0.0607,0.0547,0.0489,0.0449,0.0431,0.0392,0.0398,0.0405,0.0442,0.0396,0.033,0,0,0,0,0,-0.0138,-0.0129,-0.0104,-0.0042,0.0006,0.0045,0.0146,0.0208,0.0333,0.0379,0.0445,0.046,0.0449,0.0454,0.0402,0.0416,0.0393,0.0346,0.0343,0.0373,0.0381,0.0427,0,0,0,0,0,0,-0.0146,-0.0132,-0.0118,-0.0075,-0.0041,0.0022,0.0079,0.0163,0.0201,0.0322,0.0323,0.04,0.0387,0.0478,0.0387,0.0381,0.0357,0.0371,0.0369,0.0369,0.0376,0.0382,0.0432,0,0,0,0,0]},{"header":{"parameterUnit":"m.s-1","parameterCategory":2,"la1":30.2991,"la2":30.254,"lo1":-89.0895,"lo2":-89.0444,"dy":0.0017,"dx":0.0017,"nx":28,"ny":28,"refTime":"2024-05-18T21:00:00:Z","depth":"4","parameterNumber":3,"parameterNumberName":"V-component_of_CURRENTS"},"data":[0,0,0,0,0,0,0,0,0,0,0,0,0,0,0,0,0,0,0,0,0,0,0,0,0,0,0,0,0,0,0,0,0,0,0,0,0,0,0,0,0,0,0,0,0,0,0,0,0,0,0,0,0,0,0,0,0,0,0.028,0.028,0,0.0279,0.0279,0.0279,0.0302,0.0303,0.0304,0.0304,0.0271,0.0269,0.0267,0,0,0,0,0,0,0,0,0,0,0,0,0,0.0265,0.0265,0.028,0.028,0.028,0.0279,0.0279,0.0279,0.0302,0.0303,0.0304,0.0305,0.0271,0.0269,0.0267,0,0,0,0,0,0,0,0,0,0,0,0,0,0.0267,0.0265,0.028,0.0293,0.0294,0.0279,0.0279,0.0279,0.0302,0.0303,0.0304,0.0305,0.0272,0.0269,0.0267,0.0229,0,0,0.0259,0.0258,0,0,0,0,0,0,0,0,0.0267,0.0267,0.0291,0.0292,0.0293,0.0293,0.0261,0.0261,0.0302,0.0297,0.0304,0.0306,0.0275,0.0273,0.0268,0.0227,0.0226,0.0259,0.0258,0.0257,0.0256,0,0,0,0,0,0,0,0.0267,0.0267,0.0278,0.0291,0.0292,0.0286,0.0288,0.0261,0.0278,0.0298,0.03,0.0302,0.0276,0.027,0.0267,0.0225,0.0259,0.0257,0.0256,0.0255,0.017,0.017,0,0,0,0,0,0,0.0271,0.0267,0.0278,0.0278,0.0285,0.0286,0.0288,0.0291,0.0279,0.0279,0.0301,0.0303,0.0274,0.027,0.0266,0.0265,0.0257,0.0254,0.0253,0.0171,0.017,0.0169,0,0,0,0,0,0,0.027,0.0272,0.0278,0.0274,0.0275,0.0285,0.0288,0.029,0.0301,0.0282,0.0281,0.0313,0.0275,0.027,0.0246,0.0263,0.0253,0.0251,0.0172,0.0171,0.017,0.0234,0,0,0,0,0,0,0.027,0.0271,0.0282,0.0274,0.0275,0.0282,0.0287,0.0289,0.0301,0.0304,0.0291,0.0288,0.0275,0.025,0.0244,0.0259,0.0249,0.0173,0.0171,0.017,0.0233,0.0235,0.0237,0,0,0,0,0,0.0269,0.0275,0.0282,0.0284,0.0287,0.0282,0.0282,0.0292,0.03,0.0306,0.029,0.029,0.0236,0.0247,0.024,0.0255,0.0174,0.0172,0.017,0.0232,0.0235,0.0237,0,0,0,0,0,0,0.027,0.0278,0.0286,0.0294,0.0296,0.0288,0.0293,0.0298,0.029,0.0293,0.0276,0.0271,0.0256,0.0235,0.0247,0.0222,0.0206,0.0203,0.0255,0.0258,0.026,0.0268,0.0247,0,0,0,0,0,0.0276,0.0287,0.0288,0.0295,0.0297,0.0297,0.0299,0.0305,0.0294,0.0294,0.0284,0.0263,0.0238,0.0234,0.0206,0.0192,0.0154,0.0194,0.0197,0.0199,0.0198,0.0145,0.0143,0.0164,0.0164,0.0164,0,0,0.0278,0.0284,0.0291,0.0297,0.0298,0.0302,0.0301,0.0307,0.0316,0.0288,0.0293,0.0267,0.0232,0.0218,0.0211,0.021,0.0172,0.0197,0.02,0.0197,0.0143,0.0141,0.0139,0.0162,0.0163,0.0163,0,0,0.0283,0.0292,0.0304,0.0307,0.0316,0.0312,0.0317,0.0316,0.0326,0.0319,0.0299,0.0278,0.0252,0.023,0.0215,0.0205,0.0179,0.0204,0.0234,0.0183,0.0181,0.0179,0.0132,0.0125,0.0214,0.0214,0.0214,0,0.0288,0.0303,0.0305,0.0316,0.0324,0.0319,0.0331,0.0331,0.0325,0.0323,0.0329,0.0274,0.0255,0.0226,0.0234,0.0214,0.0181,0.0236,0.0188,0.0186,0.0183,0.0134,0.0126,0.0217,0.0216,0.0216,0.0216,0,0.0299,0.0317,0.032,0.0336,0.0342,0.0349,0.0351,0.0355,0.0362,0.0356,0.0337,0.0304,0.0272,0.0268,0.0256,0.0228,0.021,0.0194,0.0191,0.0185,0.0133,0.0124,0.0221,0.022,0.0219,0.0218,0,0,0.0299,0.0326,0.0331,0.0345,0.0357,0.0358,0.0371,0.0372,0.0371,0.0368,0.036,0.0332,0.0314,0.0293,0.0271,0.0243,0.0203,0.0225,0.0221,0.0193,0.0094,0.0124,0.0116,0.0187,0.0186,0.0185,0.0069,0,0.0311,0.034,0.0351,0.0373,0.0385,0.0388,0.04,0.0399,0.039,0.0377,0.035,0.033,0.0324,0.0315,0.0283,0.0213,0.0181,0.0236,0.0089,0.0085,0.0125,0.0107,0.018,0.0061,0.0059,0.0057,0.0056,0,0.0321,0.0343,0.0375,0.0398,0.0403,0.042,0.0425,0.0435,0.0412,0.0404,0.0376,0.0345,0.0303,0.0301,0.0188,0.0227,0.0169,0.0121,0.0115,0.0114,0.0097,0.0063,0.0038,0.004,0.0041,0.0042,0.0043,0,0.0321,0.0355,0.0384,0.0394,0.0419,0.0441,0.0459,0.045,0.0454,0.0424,0.0406,0.0344,0.0311,0.0233,0.0147,0.0164,0.0016,0.0016,-0.0017,-0.0016,-0.0035,-0.0032,-0.0067,-0.0067,-0.0067,-0.0067,-0.0066,0,0.0328,0.0349,0.0394,0.041,0.0449,0.0464,0.0493,0.0491,0.0482,0.0468,0.0429,0.0381,0.0295,0.0205,0.0131,0.0027,-0.0005,-0.0018,-0.0044,-0.0006,0.0001,-0.0042,-0.0037,-0.0071,-0.007,-0.0069,-0.0069,0,0.0324,0.0352,0.0386,0.0431,0.0455,0.0488,0.054,0.0542,0.0533,0.051,0.0504,0.0401,0.0283,0.0189,0.0042,0.0007,-0.0096,-0.0125,-0.0081,-0.0102,-0.0091,-0.0082,-0.0175,-0.0175,-0.0175,-0.0175,-0.0175,0,0.032,0.0341,0.0407,0.0437,0.047,0.0527,0.0561,0.0579,0.0571,0.0507,0.0478,0.0372,0.0299,0.0105,0.0008,-0.0128,-0.0132,-0.0175,-0.0118,-0.0086,-0.0103,-0.0094,-0.0085,-0.0175,-0.0175,-0.0175,-0.0175,0,0.0314,0.0345,0.0379,0.0441,0.0494,0.0542,0.0585,0.0572,0.0565,0.0566,0.0457,0.0367,0.023,0.0095,0.0001,-0.01,-0.0139,-0.0174,-0.0174,-0.0122,-0.0087,-0.0101,-0.0093,-0.0175,-0.0175,-0.0175,-0.0175,0,0.031,0.0332,0.0377,0.0436,0.0503,0.0526,0.0548,0.0539,0.0539,0.0481,0.0435,0.0306,0.0241,0.0104,-0.0002,-0.0072,-0.008,-0.0078,-0.0083,-0.0084,-0.0005,0.0056,-0.0016,0,0,0,0,0,0.0302,0.0322,0.0363,0.0421,0.0488,0.0528,0.0545,0.0549,0.0543,0.0483,0.0468,0.0349,0.0202,0.0108,0.0041,-0.0011,-0.0105,-0.009,-0.0108,-0.0173,-0.0174,-0.009,0,0,0,0,0,0,0.0291,0.0325,0.0348,0.0408,0.0451,0.0508,0.052,0.0505,0.0466,0.0452,0.036,0.0372,0.0207,0.0256,0.0056,0.003,0.0017,-0.0147,-0.0148,-0.0173,-0.0173,-0.0174,-0.0088,0,0,0,0,0]}]]